Flag for Germany Weather past 2 weeks in Rathenow, Brandenburg, Germany

Now
68 °F

Passing clouds.


Feels Like: 68 °F
Forecast: 54 / 65 °F
Wind: 2 mph from South

Location: Neuruppin

Current Time: Sep 20, 2014 at 2:19:28 PM

Latest Report: Sep 20, 2014 at 1:00 PM


Visibility: 6 mi

Pressure: 29.93 "Hg

Humidity: 76%

Dew point: 60 °F

Location of RathenowLocation

Historic Weather in Rathenow — Graph

°F

Rathenow temperature yesterday

Maximum temperature yesterday: 71 °F (at 2:00 PM)
Minimum temperature yesterday: 53 °F (at 7:00 AM)
Average temperature yesterday: 61 °F

Past Weeks' High & Low Weather Summary

 TemperatureHumidityPressure
High78 °F (Sep 7, 4:00 PM)98% (Sep 14, 7:00 AM)30.19 "Hg (Sep 14, 7:00 AM)
Low50 °F (Sep 9, 4:00 AM)48% (Sep 6, 3:00 PM)29.87 "Hg (Sep 6, 6:00 PM)
Average63 °F80%30.03 "Hg
* Reported Sep 5 1:00 PM — Sep 20 1:00 PM, Rathenow, Weather by CustomWeather, © 2014

Note: Actual official high and low records may vary slightly from our data, if they occured in-between our weather recording intervals... More about our weather records

Advertising

Rathenow weather history for previous 24 hours

 ConditionsComfort  
Time TempWeatherWind HumidityBarometerVisibility
1:00 PM
Sep 20
68 °FPassing clouds.2 mph76%29.93 "Hg6 mi
12:00 PM65 °FPartly sunny.1 mph82%29.94 "Hg6 mi
11:00 AM62 °FLow clouds.1 mph88%29.94 "Hg5 mi
10:00 AM59 °FOvercast.1 mph92%29.94 "Hg4 mi
9:00 AM58 °FLow clouds.1 mph91%29.94 "Hg5 mi
8:00 AM56 °FPartly sunny.1 mph97%29.94 "Hg2 mi
7:00 AM55 °FOvercast.No wind96%29.93 "Hg1 mi
6:00 AM56 °FOvercast.1 mph96%29.94 "Hg2 mi
5:00 AM56 °FPassing clouds.No wind95%29.94 "Hg2 mi
4:00 AM56 °FPassing clouds.1 mph97%29.94 "Hg2 mi
3:00 AM57 °FClear.1 mph96%29.94 "Hg2 mi
2:00 AM57 °FPassing clouds.No wind94%29.95 "Hg2 mi
1:00 AM59 °FPassing clouds.1 mph92%29.94 "Hg3 mi
12:00 AM60 °FOvercast.1 mph89%29.94 "Hg4 mi
10:00 PM
Sep 19
64 °FOvercast.2 mph81%29.95 "Hg6 mi
9:00 PM65 °FOvercast.2 mph80%29.95 "Hg6 mi
8:00 PM66 °FOvercast.1 mph75%29.94 "Hg6 mi
7:00 PM67 °FOvercast.3 mph74%29.93 "Hg6 mi
6:00 PM68 °FOvercast.3 mph73%29.93 "Hg6 mi
4:00 PM70 °FOvercast.3 mph65%29.93 "Hg6 mi
3:00 PM71 °FPassing clouds.2 mph63%29.93 "Hg6 mi
2:00 PM71 °FSunny.2 mph64%29.94 "Hg6 mi
Weather by CustomWeather, © 2014

See weather overviewHow to use our weather pages